Helicity
111 53 43 30 14 1 20 39 24 12 51 61 69 -8 35 -8 13 33 13 44 85 80 44 84 52 6 4 0 -17 -33 -26 -15 -1 3 5 10 13 29 33 29 30 62 102 98
38 45 45 83 55 48 34 30 49 52 43 79 66 47 33 59 29 24 60 44 21 3 -14 -8 -29 -11 -53 -62 -75 -104 -78 -42 -18 -9 6 31 41 40 46 33 33 52 65 145
25 33 48 65 50 13 27 35 109 66 30 57 59 33 12 11 -4 18 14 0 -8 -9 -29 -53 -46 -31 -86 -90 -63 -51 -74 -77 -49 -6 11 40 39 42 55 58 40 45 64 100
13 39 46 21 19 1 60 68 75 66 55 47 47 54 97 20 -9 -23 -29 -27 -36 -50 -40 -31 -56 -60 -30 -42 -72 -75 -65 -42 -11 27 43 39 38 46 43 63 44 30 54 87
25 40 60 13 6 7 12 74 73 81 66 61 79 28 106 53 16 6 -13 -22 -28 -25 -31 -24 -22 -20 -30 -23 -31 -44 -5 40 41 38 44 43 49 43 41 67 67 42 29 68
15 14 43 18 34 20 25 66 38 18 -12 13 76 53 15 8 33 27 15 7 8 -2 1 7 8 10 6 13 13 34 37 22 13 28 28 35 38 39 33 50 56 54 11 25
24 27 8 23 32 6 9 -35 -15 -24 -64 -33 16 8 9 0 -18 -16 -20 -24 -10 -5 -23 -18 -16 -16 -16 -16 -3 17 30 32 18 11 10 4 26 37 20 18 59 35 -3 28
16 36 23 6 10 -10 -15 -24 -14 -14 -10 -19 -17 -11 -11 -29 -42 -9 -15 -16 -5 -1 3 2 5 -4 10 6 31 20 6 10 25 15 6 3 15 30 50 33 19 32 -10 33
31 23 27 2 30 -32 -27 -17 4 13 -1 -5 -5 -9 -25 -20 -11 -8 -6 -10 -5 14 34 36 38 25 36 58 53 39 38 29 30 43 33 34 29 43 40 69 20 27 -6 15
38 34 -19 16 -28 -31 -21 1 9 -2 -3 -2 -2 -7 -9 -7 -2 2 7 14 12 11 26 47 38 15 -8 6 28 24 40 59 51 47 78 103 91 86 76 56 41 29 34 31
-28 -5 -31 30 -35 -23 -5 -9 -6 13 11 9 0 3 -11 -24 -30 -28 -24 -22 -20 -17 6 28 35 20 2 -12 -15 -6 -7 3 50 57 57 80 88 85 91 86 41 45 64 82
-39 9 -22 -12 6 12 45 36 27 14 3 12 6 7 17 12 20 -18 -23 -15 -13 -15 -7 8 14 21 23 17 -2 -14 -13 -8 12 35 44 48 66 112 76 89 152 126 101 123
29 37 -13 37 73 76 56 38 41 39 35 25 28 30 32 26 19 6 -18 -17 -12 -18 -13 -13 1 13 14 5 -11 -30 -31 -22 -15 2 28 67 86 97 72 57 51 150 146 92
49 52 57 77 62 66 50 50 51 44 36 33 27 30 34 28 28 15 -3 9 5 2 12 -1 9 15 12 5 -16 -25 -20 -34 -23 -1 28 52 78 85 61 44 47 124 262 261
99 110 113 112 86 65 46 34 38 38 37 42 36 28 21 16 25 27 25 32 38 21 22 28 33 33 24 27 0 -30 -56 -43 -20 1 30 57 89 104 121 133 119 149 237 345
86 89 84 73 56 44 36 44 44 37 38 43 31 32 34 48 56 47 51 52 48 57 55 46 41 39 29 21 13 -15 -41 -45 -18 -15 6 47 85 115 136 144 166 169 182 189
55 38 49 45 43 39 42 42 41 29 30 38 36 38 39 57 62 67 86 90 83 78 73 65 63 45 31 21 21 7 -19 -26 -27 -32 -10 11 52 88 95 121 130 142 155 152
108 94 77 62 59 54 53 55 44 28 21 24 33 43 67 80 67 81 85 101 109 94 70 84 81 66 44 26 17 13 2 -19 -22 -16 -24 -4 9 39 64 80 82 91 113 176
76 64 63 60 63 66 64 46 38 31 39 56 69 75 77 83 82 72 69 97 93 78 101 89 87 74 61 44 27 11 10 4 -9 -15 -11 -3 -3 0 8 13 24 50 92 146
55 54 64 69 65 59 51 49 52 53 52 68 51 63 94 107 93 76 61 54 55 53 50 72 77 63 62 51 37 15 12 13 9 1 4 -3 -4 -4 1 13 15 29 54 77
47 43 49 52 43 37 44 46 62 63 58 72 62 58 60 54 60 46 45 49 61 61 69 76 75 58 52 44 35 25 20 13 18 16 10 5 6 11 9 12 18 26 34 52
31 28 31 48 46 41 54 53 70 61 67 65 61 50 48 53 53 46 23 28 46 62 62 76 67 51 48 54 37 32 26 22 17 21 25 22 19 17 18 17 22 28 38 56
50 32 33 46 52 55 64 95 81 66 62 64 44 39 45 37 43 42 49 42 41 41 53 61 59 50 45 36 39 33 30 30 27 28 34 34 34 31 24 22 24 29 40 58
64 41 50 65 91 101 75 65 61 59 61 54 48 38 44 51 40 34 34 27 33 36 39 45 50 56 48 34 37 38 41 40 38 38 40 49 40 38 37 35 41 42 48 57
110 99 114 120 96 69 72 57 53 67 69 65 58 48 38 27 28 27 27 28 36 39 39 48 56 55 44 42 46 49 57 56 58 53 50 46 43 45 47 44 45 50 56 61
121 113 99 86 83 81 62 63 62 47 51 59 51 53 40 31 28 29 25 24 27 36 40 36 38 42 48 59 64 67 70 73 78 75 68 62 56 55 58 57 57 56 55 62
146 129 108 95 89 72 62 62 63 56 53 49 42 36 36 32 33 30 25 26 27 26 29 31 34 37 42 49 55 60 61 67 80 77 83 84 80 67 63 60 64 71 77 75
Wind_Speed
43 38 38 37 44 52 45 45 49 62 44 48 50 47 44 45 46 41 37 33 33 39 40 39 43 44 46 50 55 59 62 63 65 67 67 69 70 71 72 73 74 74 76 77
46 31 28 30 49 49 45 52 51 46 42 53 53 51 49 48 46 44 42 42 48 50 50 50 52 53 56 59 63 64 65 67 69 70 71 71 72 73 73 73 73 74 75 78
39 41 39 28 45 46 51 45 41 48 56 58 57 54 49 48 48 47 47 52 53 54 52 54 57 61 64 67 69 69 68 70 72 74 75 73 74 74 74 75 75 75 76 79
35 42 31 31 43 24 32 42 51 54 58 60 62 51 47 49 50 51 55 59 60 60 61 60 63 67 69 70 69 70 71 74 77 79 77 75 74 76 78 77 77 76 76 78
34 34 30 25 27 39 17 31 54 57 58 58 62 46 44 50 53 56 59 62 63 65 65 65 67 71 71 71 73 73 77 78 78 77 77 76 77 80 81 79 79 78 76 78
36 30 27 22 34 53 20 23 53 48 50 57 60 53 57 56 57 59 60 62 64 65 66 68 69 72 73 75 76 78 78 78 77 76 76 78 79 82 84 80 80 80 76 75
38 34 41 47 24 17 7 27 49 41 31 33 54 48 53 56 58 59 61 63 63 65 66 68 70 73 73 74 77 79 77 76 76 76 77 77 81 81 85 83 79 78 72 71
40 38 40 54 40 21 22 25 19 28 24 22 26 38 43 51 57 62 65 67 68 69 70 69 70 71 74 76 81 81 79 78 78 77 78 77 82 83 83 83 79 76 71 68
29 31 40 46 40 35 33 26 25 29 32 26 27 30 36 43 47 55 61 65 67 70 73 72 73 73 78 80 84 82 81 83 83 80 79 79 80 82 83 81 80 78 71 68
42 34 42 42 39 38 28 23 29 41 41 45 35 35 35 42 54 60 64 67 69 70 73 76 77 76 77 80 84 84 85 85 84 83 82 78 77 75 80 83 84 78 71 69
40 39 38 31 40 37 33 33 39 48 49 47 46 48 50 56 61 64 66 67 69 72 74 77 77 77 77 79 83 84 83 82 82 79 78 76 73 70 73 74 78 78 72 65
41 39 39 40 42 39 40 44 47 50 52 53 56 60 63 64 62 66 68 70 72 73 76 76 76 76 78 79 81 80 80 78 78 75 72 69 69 68 64 66 67 65 65 61
37 30 38 35 36 40 40 44 48 51 53 58 59 59 59 61 65 69 70 71 72 75 76 76 77 77 78 78 79 77 77 76 75 72 68 67 63 61 64 59 54 52 50 50
38 34 39 38 40 41 44 48 49 51 54 57 60 60 61 66 66 69 72 68 70 73 74 75 76 76 76 74 76 75 75 74 71 66 63 59 56 54 52 51 50 47 41 36
38 38 34 33 38 45 48 52 55 58 59 60 62 67 69 71 71 69 69 69 68 70 72 73 74 74 75 72 72 72 71 70 68 62 58 53 49 47 47 45 42 40 37 33
33 35 38 41 43 47 51 55 57 60 61 64 68 72 72 67 65 67 66 66 67 69 71 72 72 72 72 70 70 68 67 67 66 59 54 51 48 46 46 44 40 37 35 35
38 43 43 43 47 51 53 55 56 62 65 68 69 69 69 66 65 71 66 62 63 61 66 68 70 69 67 67 66 64 64 63 63 59 55 48 46 47 42 44 41 33 31 30
33 34 37 41 45 49 53 54 58 61 64 67 68 71 69 69 64 65 61 57 66 68 68 66 65 63 63 63 62 60 59 59 59 60 54 52 45 44 43 45 43 31 25 22
34 37 39 44 46 46 46 53 57 61 66 67 71 73 66 68 61 61 56 61 68 71 70 67 65 59 57 59 57 56 55 55 55 55 55 52 48 46 44 43 44 34 24 19
37 40 44 48 48 48 49 52 56 62 65 66 68 70 71 65 61 62 63 61 64 65 67 64 60 54 53 54 53 52 52 52 50 50 50 48 48 45 44 41 40 39 28 21
42 45 48 50 53 53 51 53 57 64 64 61 65 69 66 62 58 63 64 66 69 65 63 61 56 53 52 51 49 49 49 48 47 46 44 44 44 44 39 38 36 30 31 26
44 49 51 52 54 57 56 57 60 59 61 60 60 62 63 59 64 64 56 60 65 66 61 59 55 52 50 48 46 46 45 44 43 42 41 40 39 38 38 36 32 30 27 24
46 50 51 52 54 54 59 61 58 57 57 56 56 58 59 59 59 64 66 64 62 63 61 59 57 51 47 45 44 43 42 41 40 39 38 37 36 35 33 31 30 28 26 25
44 46 48 48 49 57 62 57 56 55 53 52 53 55 57 60 59 59 58 61 63 60 59 59 56 51 46 43 42 40 39 39 38 37 35 34 33 32 32 30 29 28 26 25
44 46 47 49 54 56 55 55 54 56 54 50 54 55 57 58 55 56 59 60 59 58 57 57 55 51 46 42 40 38 38 37 37 36 35 34 33 31 30 29 27 26 25 24
43 46 44 47 51 52 52 53 53 53 52 52 55 58 58 58 56 56 57 58 57 55 54 54 53 50 46 42 40 38 37 37 36 36 34 33 32 30 29 27 26 25 23 22
41 44 48 51 50 50 49 52 55 54 51 52 55 55 56 56 56 56 54 54 54 54 53 52 51 49 45 42 39 38 37 36 36 34 34 33 31 30 28 27 25 23 22 21
Wind_Direction
329 328 336 337 336 325 332 327 315 302 310 294 306 308 332 341 335 324 325 315 321 311 321 325 318 315 322 318 312 312 310 313 317 320 323 316 310 305 300 292 290 284 280 272
337 345 349 349 328 326 333 323 307 303 299 304 305 320 324 322 331 330 316 314 316 315 312 315 315 313 312 313 310 310 310 311 313 316 316 315 312 310 303 295 292 290 282 276
352 356 345 353 328 327 330 333 327 302 295 297 301 308 311 308 316 316 320 320 318 316 306 307 310 311 309 309 308 306 307 309 311 313 311 313 309 307 307 298 294 293 284 277
1 359 8 353 355 36 2 301 321 323 308 302 302 314 323 310 314 316 315 317 312 313 310 312 315 312 311 308 305 306 307 308 308 310 311 312 309 305 306 301 295 292 288 281
9 6 357 83 19 10 46 358 322 318 316 307 311 315 321 324 329 321 320 321 317 316 314 316 319 320 317 313 308 308 309 311 312 314 312 311 311 303 300 309 294 292 289 283
353 16 20 55 276 298 39 3 313 295 297 312 319 305 305 321 328 327 327 327 325 320 318 318 320 320 319 317 317 314 314 314 316 316 315 311 308 302 302 307 300 291 290 285
335 347 310 342 272 241 83 236 290 282 262 279 332 321 299 316 326 328 329 330 332 331 328 328 322 320 321 321 321 320 319 317 317 316 314 313 307 309 303 303 305 296 293 288
325 338 320 325 347 340 222 241 230 259 252 257 265 284 291 307 317 320 323 327 329 330 330 331 333 332 329 325 323 322 322 321 320 319 317 315 310 308 309 304 303 299 292 289
10 359 345 324 2 278 266 250 245 267 284 275 278 280 290 296 300 310 319 322 323 329 332 335 336 336 330 328 328 327 324 319 318 319 318 315 313 310 308 306 300 295 291 285
335 355 294 321 305 288 249 241 267 309 301 310 290 292 291 300 315 320 323 323 323 322 323 325 327 329 328 325 325 325 323 321 319 316 316 315 312 310 305 301 294 294 287 280
265 290 273 331 295 272 256 272 294 329 326 316 307 308 309 320 328 330 329 327 329 329 329 329 329 330 331 330 329 326 323 321 320 319 316 314 312 309 306 309 298 290 283 279
274 312 288 283 288 296 326 322 330 326 323 331 328 327 334 334 341 331 329 332 333 331 334 333 331 333 333 336 334 329 327 324 319 316 316 314 311 308 309 309 308 298 285 278
336 8 299 319 335 346 340 337 339 345 348 341 348 350 355 351 341 334 329 330 334 335 336 332 335 335 335 335 334 330 329 327 323 319 317 315 316 312 305 305 312 312 298 285
323 339 312 310 323 338 334 338 343 348 348 349 348 349 348 342 341 337 332 340 339 338 341 336 339 341 340 343 337 335 336 334 329 322 320 324 320 320 319 309 302 300 310 306
340 343 347 350 339 331 332 331 335 337 344 346 346 339 332 328 335 338 338 339 339 337 337 338 340 342 343 350 344 339 336 340 338 335 335 329 332 332 334 326 311 299 296 299
354 359 340 332 331 330 331 333 338 339 344 342 335 332 331 339 342 340 341 341 343 340 335 333 334 338 342 349 351 348 343 345 351 344 339 340 339 340 343 341 325 306 291 286
332 322 328 329 328 329 334 341 347 339 335 336 338 339 339 341 341 337 342 342 341 342 338 335 332 333 338 343 353 354 351 352 353 354 354 343 346 350 348 357 345 321 301 294
346 355 354 348 350 347 345 347 345 345 344 342 342 339 342 343 343 344 345 351 340 333 330 333 333 335 338 340 346 355 356 355 358 4 356 358 350 355 359 6 0 338 318 311
344 343 353 348 353 355 0 350 349 348 343 344 343 342 345 346 349 347 348 348 340 329 327 327 328 335 342 342 343 348 355 356 355 0 5 4 1 3 5 9 14 360 345 338
336 341 343 344 349 353 354 351 350 346 345 347 348 349 347 351 353 348 347 348 342 333 319 325 334 341 344 346 347 344 346 352 355 355 1 1 7 4 8 9 13 17 8 5
330 334 337 340 342 346 349 348 347 342 346 352 353 353 355 358 358 350 348 348 340 330 325 330 339 343 343 343 345 346 343 344 350 353 354 358 5 8 3 6 11 9 18 20
328 328 332 336 339 341 345 344 342 346 348 351 356 358 1 1 356 353 356 353 344 337 336 340 345 347 346 344 342 340 342 340 342 348 353 355 358 3 8 9 9 10 12 14
331 331 332 334 337 341 340 341 345 348 353 356 358 360 1 2 1 354 348 346 348 342 343 344 349 353 356 353 342 335 336 340 338 340 345 351 357 1 360 2 4 5 9 13
342 340 339 340 343 338 334 343 347 350 354 356 359 0 360 356 356 359 358 351 347 345 345 344 351 358 4 4 346 331 333 339 343 339 339 343 348 353 357 1 4 3 5 9
345 344 345 343 337 338 343 344 346 348 351 354 356 357 355 354 355 354 355 355 352 351 349 347 349 357 5 7 353 337 336 338 346 348 343 341 342 344 348 352 355 358 2 7
344 343 348 346 342 344 344 345 345 349 351 350 351 351 350 350 351 352 352 353 355 354 354 353 351 353 358 360 352 341 338 339 345 349 347 344 344 343 344 347 350 354 358 1
345 345 342 340 343 345 346 346 343 342 348 349 347 349 349 349 349 349 350 351 352 353 352 351 351 351 351 353 352 346 339 339 343 347 346 345 343 342 344 345 348 352 355 357